Regional Weather Roundup
Issued by NWS Tiyan, Guam

Home | Current Version | Previous Version | Text Only | Print | Product List | Glossary On
Versions: 1 2 3 4 5 6 7 8 9 10 11 12 13 14 15 16 17 18 19 20 21 22 23 24 25 26 27 28 29 30 31 32 33 34 35 36 37 38 39 40 41 42 43 44 45 46 47 48 49 50
000
ASGM40 PGUM 290810
RWRGUM
WEATHER ROUNDUP FOR THE MARIANAS
NATIONAL WEATHER SERVICE TIYAN GU
600 PM CHST SAT AUG 29 2015

GUZ001>004-290900-
MARIANA ISLANDS-

CITY           SKY/WX    TMP DP  RH WIND       PRES   REMARKS
GUAM AIRPORT   MOCLDY    82  75  78 E3        29.80R
ANDERSEN AFB   CLEAR     82  75  78 SE3       29.80R
ROTA AIRPORT   MOCLDY    82  79  89 S3        29.79R HX  93
TINIAN AP      MOCLDY    84  77  79 CALM      29.76R HX  94
SAIPAN AP      MOCLDY    82  75  78 S3        29.77R

$$



USA.gov is the U.S. government's official web portal to all federal, state and local government web resources and services.